Zurück zum Katalog

CZ-6A DEB

AktivSSO
NORAD 55002·DEBRIS·🇨🇳 China

Gestartet Nov 11, 2022 von Taiyuan Satellite Launch Center

Loading…

Nächste Überflüge (nächste 24 Stunden)

TLE

AktuellSource: Space-Track

Epoche: Sep 14, 2026, 11:35 UTC

1 55002U 22151US  26257.48268197  .00000654  00000-0  34051-3 0  9991
2 55002  98.7976 263.7098 0030155  68.7169 291.7221 14.17809443197110

Verfolge CZ-6A DEB in Echtzeit mit AllMySat

Download on the App Store